WXM80 ListenWXM80 Stop

You find our weather info also at:

UK Metoffice

WeatherCloud

Weather Underground

Northeastern Weather Network

AWEKAS

Citizen Weather Observer Program (CWOP)

HAMweather, WeatherForYou, PWS Weather


Weather Underground History page Text

Daily Summary for April 22, 2017 Units:  Metric    English   Both
« Previous Day
Next Day »
Daily Weekly Monthly Yearly Custom
  High: Low: Average:
Temperature: 11.3 °C 8.3 °C 9.8 °C
Dew Point: 10.5 °C 6.9 °C 8.9 °C
Humidity: 99 % 83 % 95 %
Wind Speed: 12.6 km/h 0 km/h 2.4 km/h
Wind Gust: 16.1 km/h - -
Wind:- - ESE
Pressure: 1014.8 hPa 1011.1 hPa -
Precipitation: 0 mm    
Historical Graphs
 
 
Tabular Data for April 22, 2017
Time Temperature Dew Point Pressure Wind Wind Speed Wind Gust Humidity Rainfall Rate (Hourly)
00:04 8.4 °C 8.2 °C 1012.8 hPa East 6.8 km/h 9.7 km/h 98 % 0 mm
00:09 8.4 °C 8.2 °C 1012.8 hPa ENE 4.3 km/h 5.6 km/h 98 % 0 mm
00:14 8.5 °C 8.2 °C 1012.8 hPa East 4.5 km/h 8 km/h 98 % 0 mm
00:19 8.5 °C 8.2 °C 1012.8 hPa ENE 4.3 km/h 7.4 km/h 98 % 0 mm
00:24 8.5 °C 8.2 °C 1012.4 hPa ENE 4.7 km/h 9.3 km/h 98 % 0 mm
00:29 8.5 °C 8.2 °C 1012.4 hPa East 4.7 km/h 8 km/h 98 % 0 mm
00:34 8.5 °C 8.2 °C 1012.4 hPa East 6.4 km/h 9.3 km/h 98 % 0 mm
00:39 8.4 °C 8.2 °C 1012.4 hPa ENE 4 km/h 5.6 km/h 98 % 0 mm
00:44 8.4 °C 8.2 °C 1012.4 hPa East 4.2 km/h 7.4 km/h 98 % 0 mm
00:49 8.4 °C 8.2 °C 1012.8 hPa East 4.2 km/h 7.4 km/h 98 % 0 mm
00:55 8.4 °C 8.2 °C 1012.8 hPa ENE 2.9 km/h 5.6 km/h 98 % 0 mm
01:00 8.5 °C 8.2 °C 1012.8 hPa East 3.5 km/h 5.6 km/h 98 % 0 mm
01:05 8.5 °C 8.2 °C 1012.4 hPa ENE 3.4 km/h 4.8 km/h 98 % 0 mm
01:06 8.5 °C 8.2 °C 1012.4 hPa ENE 3.4 km/h 5.6 km/h 98 % 0 mm
01:11 8.5 °C 8.2 °C 1012.8 hPa ENE 3.5 km/h 6.4 km/h 98 % 0 mm
01:16 8.5 °C 8.2 °C 1012.4 hPa ENE 7.6 km/h 11.1 km/h 98 % 0 mm
01:21 8.4 °C 8.2 °C 1012.4 hPa ENE 5.3 km/h 7.4 km/h 98 % 0 mm
01:26 8.4 °C 8.2 °C 1012.1 hPa East 6.8 km/h 13 km/h 98 % 0 mm
01:31 8.4 °C 8.1 °C 1012.1 hPa ENE 6 km/h 11.3 km/h 98 % 0 mm
01:36 8.4 °C 8.1 °C 1012.4 hPa NE 5 km/h 6.4 km/h 98 % 0 mm
01:41 8.4 °C 8.1 °C 1012.4 hPa NE 3.4 km/h 6.4 km/h 98 % 0 mm
01:46 8.3 °C 8.1 °C 1012.1 hPa NE 1.9 km/h 5.6 km/h 98 % 0 mm
01:51 8.3 °C 8.1 °C 1012.1 hPa NE 3.9 km/h 6.4 km/h 98 % 0 mm
01:56 8.3 °C 8.1 °C 1012.1 hPa NE 4.5 km/h 7.4 km/h 98 % 0 mm
02:01 8.3 °C 8.1 °C 1012.1 hPa East 4.5 km/h 8 km/h 98 % 0 mm
02:06 8.4 °C 8.1 °C 1012.1 hPa NE 3.7 km/h 5.6 km/h 98 % 0 mm
02:11 8.4 °C 8.2 °C 1012.1 hPa ENE 5.1 km/h 5.6 km/h 98 % 0 mm
02:16 8.4 °C 8.2 °C 1012.1 hPa NE 3.5 km/h 5.6 km/h 98 % 0 mm
02:22 8.4 °C 8.2 °C 1012.1 hPa ENE 3.9 km/h 5.6 km/h 98 % 0 mm
02:27 8.5 °C 8.2 °C 1012.4 hPa ENE 3.1 km/h 7.4 km/h 98 % 0 mm
02:32 8.5 °C 8.2 °C 1012.4 hPa ENE 1.1 km/h 4.8 km/h 98 % 0 mm
02:37 8.6 °C 8.3 °C 1012.4 hPa Calm   1.9 km/h 98 % 0 mm
02:42 8.6 °C 8.3 °C 1012.4 hPa ENE 0.8 km/h 3.7 km/h 98 % 0 mm
02:47 8.6 °C 8.3 °C 1012.1 hPa Calm   3.2 km/h 98 % 0 mm
02:52 8.6 °C 8.3 °C 1012.1 hPa NE 1.6 km/h 4.8 km/h 98 % 0 mm
02:57 8.6 °C 8.3 °C 1012.4 hPa NNE 2.6 km/h 5.6 km/h 98 % 0 mm
03:02 8.7 °C 8.4 °C 1012.4 hPa Calm   1.9 km/h 98 % 0 mm
03:07 8.7 °C 8.4 °C 1012.4 hPa Calm   3.2 km/h 98 % 0 mm
03:12 8.7 °C 8.4 °C 1012.4 hPa Calm   3.2 km/h 98 % 0 mm
03:17 8.7 °C 8.4 °C 1012.4 hPa Calm   1.6 km/h 98 % 0 mm
03:22 8.7 °C 8.4 °C 1012.1 hPa Calm   1.6 km/h 98 % 0 mm
03:27 8.7 °C 8.4 °C 1012.1 hPa Calm   1.6 km/h 98 % 0 mm
03:32 8.7 °C 8.4 °C 1012.1 hPa Calm     98 % 0 mm
03:37 8.7 °C 8.4 °C 1011.7 hPa Calm   1.9 km/h 98 % 0 mm
03:42 8.7 °C 8.6 °C 1011.7 hPa Calm   1.6 km/h 99 % 0 mm
03:47 8.8 °C 8.6 °C 1011.7 hPa NNE 1.6 km/h 4.8 km/h 99 % 0 mm
03:52 8.8 °C 8.6 °C 1011.7 hPa Calm   3.2 km/h 99 % 0 mm
03:57 8.8 °C 8.6 °C 1011.4 hPa Calm     99 % 0 mm
04:02 8.8 °C 8.6 °C 1011.4 hPa Calm     99 % 0 mm
04:07 8.8 °C 8.6 °C 1011.4 hPa Calm   1.6 km/h 99 % 0 mm
04:12 8.8 °C 8.7 °C 1011.4 hPa NNE 1.6 km/h 4.8 km/h 99 % 0 mm
04:17 8.8 °C 8.7 °C 1011.1 hPa NNE 4.8 km/h 8 km/h 99 % 0 mm
04:22 8.8 °C 8.7 °C 1011.4 hPa NNE 3.2 km/h 8 km/h 99 % 0 mm
04:27 8.8 °C 8.7 °C 1011.1 hPa NNE 3.2 km/h 6.4 km/h 99 % 0 mm
04:32 8.9 °C 8.7 °C 1011.1 hPa NNE 5 km/h 6.4 km/h 99 % 0 mm
04:37 8.9 °C 8.7 °C 1011.1 hPa NNE 3.2 km/h 8 km/h 98 % 0 mm
04:42 8.9 °C 8.7 °C 1011.1 hPa NNE 0.3 km/h 5.6 km/h 98 % 0 mm
04:47 8.9 °C 8.7 °C 1011.1 hPa Calm   1.9 km/h 98 % 0 mm
04:52 8.9 °C 8.7 °C 1011.1 hPa Calm   4.8 km/h 98 % 0 mm
04:57 8.9 °C 8.7 °C 1011.1 hPa NNE 0.5 km/h 3.7 km/h 98 % 0 mm
05:02 8.9 °C 8.7 °C 1011.1 hPa NE 0.5 km/h 5.6 km/h 98 % 0 mm
05:07 8.9 °C 8.7 °C 1011.4 hPa NE 0.3 km/h 3.7 km/h 98 % 0 mm
05:12 8.9 °C 8.7 °C 1011.4 hPa Calm     98 % 0 mm
05:17 8.9 °C 8.7 °C 1011.4 hPa NE 0.2 km/h 3.7 km/h 98 % 0 mm
05:19 8.9 °C 8.7 °C 1011.4 hPa NE 2.4 km/h 3.7 km/h 98 % 0 mm
05:24 8.9 °C 8.7 °C 1011.7 hPa NNE 1.6 km/h 5.6 km/h 98 % 0 mm
05:29 8.9 °C 8.7 °C 1011.7 hPa North 5.1 km/h 7.4 km/h 98 % 0 mm
05:34 9 °C 8.7 °C 1011.4 hPa NNE 0.2 km/h 3.7 km/h 98 % 0 mm
05:39 9 °C 8.7 °C 1011.1 hPa ENE 1.6 km/h 5.6 km/h 98 % 0 mm
05:44 9 °C 8.7 °C 1011.4 hPa ENE 0.2 km/h 3.7 km/h 98 % 0 mm
05:49 9 °C 8.7 °C 1011.4 hPa NE 1 km/h 3.7 km/h 98 % 0 mm
05:54 9 °C 8.7 °C 1011.4 hPa NE 2.6 km/h 5.6 km/h 98 % 0 mm
05:59 8.9 °C 8.7 °C 1011.7 hPa NNE 1.9 km/h 4.8 km/h 98 % 0 mm
06:04 8.9 °C 8.7 °C 1011.7 hPa NNE 1.4 km/h 3.2 km/h 98 % 0 mm
06:09 8.9 °C 8.7 °C 1011.7 hPa NNE 4.2 km/h 7.4 km/h 98 % 0 mm
06:14 8.9 °C 8.7 °C 1012.1 hPa ENE 4.7 km/h 7.4 km/h 98 % 0 mm
06:19 8.9 °C 8.7 °C 1011.7 hPa ENE 1.6 km/h 3.7 km/h 98 % 0 mm
06:24 8.9 °C 8.7 °C 1011.7 hPa NE 3.9 km/h 5.6 km/h 98 % 0 mm
06:29 8.9 °C 8.7 °C 1011.7 hPa ENE 4.2 km/h 5.6 km/h 98 % 0 mm
06:34 8.9 °C 8.7 °C 1012.1 hPa ENE 0.2 km/h 3.7 km/h 98 % 0 mm
06:39 8.9 °C 8.7 °C 1012.1 hPa ENE 0.8 km/h 3.7 km/h 98 % 0 mm
06:44 8.9 °C 8.7 °C 1011.7 hPa ENE 4.7 km/h 5.6 km/h 98 % 0 mm
06:49 9 °C 8.7 °C 1011.7 hPa ENE 5 km/h 11.1 km/h 98 % 0 mm
06:50 9 °C 8.7 °C 1011.7 hPa NE 4.8 km/h 11.1 km/h 98 % 0 mm
06:55 9 °C 8.7 °C 1011.7 hPa NE 6 km/h 13 km/h 98 % 0 mm
07:00 9 °C 8.7 °C 1011.7 hPa ENE 3.5 km/h 5.6 km/h 98 % 0 mm
07:05 8.9 °C 8.7 °C 1011.7 hPa NE 5 km/h 11.1 km/h 98 % 0 mm
07:10 8.9 °C 8.7 °C 1011.7 hPa ENE 4.8 km/h 6.4 km/h 98 % 0 mm
07:15 8.9 °C 8.7 °C 1011.7 hPa ENE 6.6 km/h 11.1 km/h 99 % 0 mm
07:20 8.8 °C 8.7 °C 1011.7 hPa ENE 5.6 km/h 8 km/h 99 % 0 mm
07:25 8.8 °C 8.7 °C 1011.7 hPa ENE 4.5 km/h 9.3 km/h 99 % 0 mm
07:30 8.8 °C 8.7 °C 1011.7 hPa ENE 4.5 km/h 9.3 km/h 99 % 0 mm
07:35 8.8 °C 8.7 °C 1011.7 hPa ENE 12.6 km/h 16.1 km/h 99 % 0 mm
07:40 8.8 °C 8.6 °C 1011.7 hPa NE 9.7 km/h 13 km/h 99 % 0 mm
07:45 8.8 °C 8.6 °C 1012.1 hPa ENE 7.1 km/h 13 km/h 99 % 0 mm
07:50 8.7 °C 8.4 °C 1011.7 hPa East 6.3 km/h 11.1 km/h 98 % 0 mm
07:55 8.7 °C 8.4 °C 1012.1 hPa NE 5 km/h 7.4 km/h 98 % 0 mm
08:00 8.8 °C 8.5 °C 1012.1 hPa ENE 4 km/h 8 km/h 98 % 0 mm
08:05 8.8 °C 8.5 °C 1012.1 hPa ENE 7.2 km/h 13 km/h 98 % 0 mm
08:10 8.7 °C 8.4 °C 1012.1 hPa NE 1.4 km/h 3.7 km/h 98 % 0 mm
08:15 8.8 °C 8.5 °C 1012.4 hPa NE 1.1 km/h 3.7 km/h 98 % 0 mm
08:20 8.8 °C 8.5 °C 1012.4 hPa ENE 4.7 km/h 7.4 km/h 98 % 0 mm
08:25 8.8 °C 8.5 °C 1012.4 hPa ENE 4 km/h 5.6 km/h 98 % 0 mm
08:26 8.8 °C 8.5 °C 1012.4 hPa ENE 4.3 km/h 6.4 km/h 98 % 0 mm
08:31 8.7 °C 8.4 °C 1012.4 hPa NE 1.8 km/h 3.7 km/h 98 % 0 mm
08:36 8.8 °C 8.5 °C 1012.4 hPa North 5.3 km/h 9.3 km/h 98 % 0 mm
08:41 8.8 °C 8.6 °C 1012.4 hPa ENE 2.3 km/h 5.6 km/h 98 % 0 mm
08:46 8.9 °C 8.6 °C 1012.4 hPa NE 6.3 km/h 7.4 km/h 98 % 0 mm
08:51 8.8 °C 8.6 °C 1012.4 hPa NE 2.9 km/h 11.1 km/h 98 % 0 mm
08:56 8.9 °C 8.6 °C 1012.8 hPa ENE 2.7 km/h 7.4 km/h 98 % 0 mm
09:01 8.8 °C 8.6 °C 1012.8 hPa NE 1.6 km/h 5.6 km/h 98 % 0 mm
09:06 8.8 °C 8.6 °C 1012.8 hPa ENE 4.8 km/h 7.4 km/h 98 % 0 mm
09:11 8.8 °C 8.6 °C 1012.4 hPa ENE 4.5 km/h 5.6 km/h 98 % 0 mm
09:16 8.8 °C 8.6 °C 1012.8 hPa ENE 4.7 km/h 11.1 km/h 98 % 0 mm
09:21 8.9 °C 8.6 °C 1012.4 hPa ENE 2.9 km/h 6.4 km/h 98 % 0 mm
09:26 8.9 °C 8.6 °C 1012.8 hPa ENE 3.9 km/h 7.4 km/h 98 % 0 mm
09:31 8.9 °C 8.7 °C 1012.8 hPa ENE 4.2 km/h 7.4 km/h 98 % 0 mm
09:36 8.9 °C 8.7 °C 1012.8 hPa ENE 1.1 km/h 5.6 km/h 98 % 0 mm
09:41 8.9 °C 8.7 °C 1012.8 hPa East 2.1 km/h 5.6 km/h 98 % 0 mm
09:46 9.1 °C 8.8 °C 1012.8 hPa East 2.9 km/h 5.6 km/h 98 % 0 mm
09:51 9.2 °C 8.9 °C 1012.8 hPa East 5 km/h 8 km/h 98 % 0 mm
09:56 9.2 °C 8.9 °C 1012.8 hPa ENE 3.5 km/h 5.6 km/h 98 % 0 mm
10:01 9.3 °C 9.1 °C 1013.1 hPa East 2.6 km/h 5.6 km/h 98 % 0 mm
10:06 9.4 °C 9.1 °C 1012.8 hPa East 2.6 km/h 5.6 km/h 98 % 0 mm
10:11 9.5 °C 9.2 °C 1013.1 hPa ENE 2.3 km/h 7.4 km/h 98 % 0 mm
10:16 9.6 °C 9.3 °C 1013.1 hPa ENE 3.4 km/h 5.6 km/h 98 % 0 mm
10:21 9.7 °C 9.4 °C 1013.1 hPa ENE 3.7 km/h 5.6 km/h 98 % 0 mm
10:26 9.7 °C 9.4 °C 1013.1 hPa ENE 3.4 km/h 5.6 km/h 98 % 0 mm
10:31 9.7 °C 9.4 °C 1013.1 hPa ENE 3.1 km/h 5.6 km/h 98 % 0 mm
10:36 9.7 °C 9.4 °C 1013.1 hPa ENE 2.9 km/h 5.6 km/h 98 % 0 mm
10:41 9.7 °C 9.4 °C 1013.1 hPa ENE 3.1 km/h 5.6 km/h 98 % 0 mm
10:46 9.8 °C 9.5 °C 1012.8 hPa East 5.6 km/h 8 km/h 98 % 0 mm
10:51 9.8 °C 9.4 °C 1012.8 hPa East 3.7 km/h 8 km/h 97 % 0 mm
10:56 9.9 °C 9.7 °C 1013.1 hPa ENE 2.9 km/h 7.4 km/h 98 % 0 mm
11:01 9.9 °C 9.5 °C 1013.1 hPa ENE 4.7 km/h 5.6 km/h 97 % 0 mm
11:06 10 °C 9.6 °C 1013.1 hPa East 3.9 km/h 7.4 km/h 97 % 0 mm
11:11 10.2 °C 9.8 °C 1013.1 hPa ENE 2.9 km/h 5.6 km/h 97 % 0 mm
11:16 10.4 °C 9.9 °C 1013.1 hPa East 3.1 km/h 5.6 km/h 97 % 0 mm
11:21 10.5 °C 9.9 °C 1013.1 hPa ESE 3.4 km/h 5.6 km/h 96 % 0 mm
11:26 10.6 °C 9.8 °C 1013.1 hPa NE 4.5 km/h 5.6 km/h 95 % 0 mm
11:31 10.4 °C 9.3 °C 1013.1 hPa ENE 3.5 km/h 5.6 km/h 93 % 0 mm
11:36 10.4 °C 9.3 °C 1013.1 hPa ENE 4.5 km/h 5.6 km/h 93 % 0 mm
11:41 10.4 °C 9.2 °C 1013.1 hPa ENE 2.1 km/h 5.6 km/h 92 % 0 mm
11:46 10.4 °C 9.2 °C 1013.1 hPa ENE 1.4 km/h 3.7 km/h 92 % 0 mm
11:51 10.4 °C 9.2 °C 1013.1 hPa ENE 1.3 km/h 5.6 km/h 92 % 0 mm
11:56 10.5 °C 9.3 °C 1012.8 hPa ENE 0.6 km/h 5.6 km/h 92 % 0 mm
12:01 10.4 °C 9.1 °C 1012.8 hPa ENE 3.5 km/h 5.6 km/h 91 % 0 mm
12:06 10.4 °C 9.1 °C 1012.8 hPa ENE 3.2 km/h 5.6 km/h 91 % 0 mm
12:11 10.4 °C 8.8 °C 1012.8 hPa ENE 5.1 km/h 7.4 km/h 90 % 0 mm
12:14 10.3 °C 8.8 °C 1012.8 hPa ENE 6 km/h 7.4 km/h 90 % 0 mm
12:24 10.2 °C 8.6 °C 1012.8 hPa NE 5.3 km/h 6.4 km/h 90 % 0 mm
12:29 10.2 °C 8.8 °C 1012.8 hPa ENE 4.2 km/h 7.4 km/h 91 % 0 mm
12:34 10.2 °C 8.8 °C 1012.8 hPa ENE 1 km/h 3.7 km/h 91 % 0 mm
12:44 10.3 °C 9.1 °C 1012.4 hPa ENE 4.7 km/h 6.4 km/h 92 % 0 mm
12:49 10.4 °C 9.2 °C 1012.4 hPa ENE 2.4 km/h 5.6 km/h 92 % 0 mm
12:54 10.5 °C 9.3 °C 1012.4 hPa East 2.9 km/h 5.6 km/h 92 % 0 mm
13:00 10.5 °C 9.1 °C 1012.4 hPa East 2.7 km/h 5.6 km/h 91 % 0 mm
13:05 10.5 °C 9.1 °C 1012.4 hPa ENE 2.6 km/h 5.6 km/h 91 % 0.25 mm
13:10 10.5 °C 9.3 °C 1012.1 hPa East 2.7 km/h 5.6 km/h 92 % 0.51 mm
13:15 10.5 °C 9.3 °C 1012.1 hPa East 3.9 km/h 8 km/h 92 % 0.51 mm
13:20 10.6 °C 9.4 °C 1012.1 hPa ESE 2.6 km/h 7.4 km/h 93 % 0.76 mm
13:25 10.7 °C 9.6 °C 1012.1 hPa East 2.1 km/h 4.8 km/h 93 % 0.76 mm
13:30 10.7 °C 9.6 °C 1012.1 hPa ESE 1.3 km/h 3.2 km/h 93 % 0.76 mm
13:32 10.7 °C 9.8 °C 1011.7 hPa East 2.9 km/h 9.3 km/h 94 % 0.76 mm
13:42 10.8 °C 9.9 °C 1012.1 hPa ENE 2.3 km/h 3.7 km/h 94 % 0.76 mm
13:47 10.9 °C 10 °C 1012.1 hPa East 3.4 km/h 5.6 km/h 94 % 0.76 mm
13:53 11.1 °C 10.1 °C 1012.4 hPa ENE 3.2 km/h 5.6 km/h 94 % 0.76 mm
13:58 11.1 °C 10.1 °C 1012.4 hPa East 2.1 km/h 5.6 km/h 94 % 0.76 mm
14:08 11 °C 9.9 °C 1012.1 hPa ENE 1.4 km/h 3.7 km/h 93 % 0.51 mm
14:13 10.9 °C 9.8 °C 1012.1 hPa East 1.3 km/h 5.6 km/h 93 % 0.25 mm
14:18 10.9 °C 9.8 °C 1012.1 hPa East 2.4 km/h 5.6 km/h 93 % 0 mm
14:23 10.9 °C 9.7 °C 1012.1 hPa East 0.6 km/h 3.7 km/h 92 % 0 mm
14:28 10.8 °C 9.6 °C 1012.1 hPa SE 2.7 km/h 5.6 km/h 92 % 0 mm
14:33 10.8 °C 9.6 °C 1012.1 hPa SE 1.1 km/h 3.7 km/h 92 % 0 mm
14:38 10.7 °C 9.5 °C 1012.1 hPa SE 1.1 km/h 1.9 km/h 92 % 0 mm
14:43 10.7 °C 9.3 °C 1012.1 hPa Calm   1.9 km/h 91 % 0 mm
14:48 10.7 °C 9.4 °C 1012.1 hPa SE 0.5 km/h 1.9 km/h 92 % 0 mm
14:53 10.7 °C 9.4 °C 1012.1 hPa SE 2.4 km/h 3.7 km/h 92 % 0.25 mm
14:58 10.7 °C 9.4 °C 1012.1 hPa SE 1.4 km/h 3.7 km/h 92 % 0.25 mm
15:03 10.7 °C 9.6 °C 1012.1 hPa Calm   1.9 km/h 93 % 0.25 mm
15:08 10.7 °C 9.6 °C 1012.1 hPa Calm   1.9 km/h 93 % 0.51 mm
15:13 10.7 °C 9.6 °C 1012.1 hPa Calm     93 % 0.51 mm
15:18 10.7 °C 9.6 °C 1012.1 hPa Calm     93 % 0.51 mm
15:23 10.7 °C 9.6 °C 1012.1 hPa Calm     93 % 0.51 mm
15:28 10.7 °C 9.8 °C 1011.7 hPa Calm     94 % 0.51 mm
15:33 10.8 °C 9.8 °C 1012.1 hPa Calm     94 % 0.51 mm
15:38 10.8 °C 9.8 °C 1012.1 hPa Calm     94 % 0.51 mm
15:43 10.8 °C 9.9 °C 1011.7 hPa Calm     94 % 0.51 mm
15:48 10.9 °C 10 °C 1012.1 hPa Calm     94 % 0.51 mm
15:53 10.9 °C 10.2 °C 1012.1 hPa Calm     95 % 0.51 mm
15:58 11 °C 10.2 °C 1012.1 hPa Calm     95 % 0.51 mm
16:03 10.9 °C 10 °C 1012.1 hPa Calm     94 % 0.25 mm
16:08 11 °C 10.1 °C 1012.1 hPa SE 0.2 km/h 1.9 km/h 94 % 0.25 mm
16:14 11.1 °C 10.1 °C 1012.1 hPa Calm     94 % 0.25 mm
16:18 11.1 °C 10.2 °C 1012.4 hPa Calm     94 % 0.25 mm
16:23 11.2 °C 10.2 °C 1012.1 hPa Calm     94 % 0.25 mm
16:28 11.2 °C 10.4 °C 1012.1 hPa Calm   1.9 km/h 95 % 0.25 mm
16:33 11.2 °C 10.4 °C 1012.1 hPa Calm     95 % 0.25 mm
16:38 11.2 °C 10.4 °C 1012.1 hPa Calm   1.6 km/h 95 % 0.25 mm
16:43 11.3 °C 10.5 °C 1012.4 hPa NW 2.4 km/h 5.6 km/h 95 % 0.25 mm
16:48 11.3 °C 10.3 °C 1012.4 hPa NW 0.5 km/h 3.2 km/h 94 % 0.25 mm
16:59 11.2 °C 10.2 °C 1012.4 hPa Calm     94 % 0 mm
17:04 11.1 °C 10.2 °C 1012.8 hPa NW 0.5 km/h 3.2 km/h 94 % 0 mm
17:09 11.1 °C 10.1 °C 1012.8 hPa NW 2.1 km/h 3.7 km/h 94 % 0 mm
17:14 11 °C 9.9 °C 1012.8 hPa NW 1.1 km/h 3.7 km/h 93 % 0 mm
17:19 10.9 °C 10 °C 1012.8 hPa Calm   1.9 km/h 94 % 0 mm
17:24 10.8 °C 9.9 °C 1012.8 hPa Calm     94 % 0 mm
17:29 10.8 °C 9.9 °C 1012.8 hPa Calm     94 % 0 mm
17:34 10.9 °C 9.9 °C 1012.8 hPa Calm     94 % 0 mm
17:39 10.9 °C 9.9 °C 1012.8 hPa Calm     94 % 0 mm
17:44 10.9 °C 9.9 °C 1013.1 hPa NW 0.5 km/h 3.7 km/h 94 % 0 mm
17:49 10.9 °C 10 °C 1013.1 hPa Calm   1.9 km/h 94 % 0 mm
17:54 10.9 °C 10 °C 1012.8 hPa Calm     94 % 0 mm
17:59 10.9 °C 10 °C 1012.8 hPa Calm     94 % 0 mm
18:04 10.9 °C 10 °C 1012.8 hPa Calm   1.6 km/h 94 % 0 mm
18:09 10.9 °C 10 °C 1012.8 hPa Calm   1.9 km/h 94 % 0 mm
18:14 10.9 °C 10 °C 1012.8 hPa NW 1.4 km/h 5.6 km/h 94 % 0 mm
18:19 11 °C 10.1 °C 1012.4 hPa NW 1.3 km/h 3.2 km/h 94 % 0 mm
18:24 11 °C 10.1 °C 1012.4 hPa NW 2.3 km/h 3.7 km/h 94 % 0 mm
18:29 11 °C 10.2 °C 1012.4 hPa West 2.1 km/h 3.7 km/h 95 % 0 mm
18:34 11 °C 10.2 °C 1012.4 hPa West 3.2 km/h 5.6 km/h 95 % 0 mm
18:39 11.1 °C 10.3 °C 1012.4 hPa West 1 km/h 3.7 km/h 95 % 0 mm
18:44 11.1 °C 10.3 °C 1012.4 hPa WSW 3.4 km/h 5.6 km/h 95 % 0 mm
18:50 11.1 °C 10.3 °C 1012.8 hPa WSW 2.1 km/h 5.6 km/h 95 % 0 mm
18:55 11.1 °C 10.3 °C 1012.8 hPa WSW 7.2 km/h 9.3 km/h 95 % 0 mm
19:00 11.1 °C 10.3 °C 1012.8 hPa WSW 1.8 km/h 5.6 km/h 95 % 0 mm
19:05 11.1 °C 10.3 °C 1012.8 hPa WSW 0.6 km/h 3.7 km/h 95 % 0 mm
19:10 11.1 °C 10.3 °C 1012.8 hPa Calm   3.7 km/h 95 % 0 mm
19:15 11.1 °C 10.3 °C 1012.8 hPa WSW 1.1 km/h 5.6 km/h 95 % 0 mm
19:20 11.1 °C 10.3 °C 1012.8 hPa WSW 1.3 km/h 3.7 km/h 95 % 0 mm
19:25 11 °C 10.2 °C 1012.8 hPa Calm   3.7 km/h 95 % 0 mm
19:30 11 °C 10.2 °C 1013.1 hPa Calm   3.7 km/h 95 % 0 mm
19:35 11 °C 10.2 °C 1013.1 hPa Calm   3.7 km/h 95 % 0 mm
19:40 11 °C 10.2 °C 1013.1 hPa WSW 1.8 km/h 5.6 km/h 95 % 0 mm
19:45 10.9 °C 10.2 °C 1013.1 hPa Calm   5.6 km/h 95 % 0 mm
19:46 10.9 °C 10.2 °C 1013.1 hPa WSW 2.4 km/h 5.6 km/h 95 % 0 mm
19:51 10.9 °C 10.2 °C 1013.1 hPa WSW 1.6 km/h 5.6 km/h 95 % 0 mm
19:56 10.9 °C 10.2 °C 1013.1 hPa WSW 1.3 km/h 3.7 km/h 95 % 0 mm
20:01 10.9 °C 10.1 °C 1013.4 hPa WSW 0.6 km/h 5.6 km/h 95 % 0 mm
20:06 10.9 °C 10.1 °C 1013.4 hPa Calm     95 % 0 mm
20:11 10.8 °C 10.1 °C 1013.4 hPa WSW 0.3 km/h 3.7 km/h 95 % 0 mm
20:16 10.8 °C 10.1 °C 1013.1 hPa WSW 0.2 km/h 1.9 km/h 95 % 0 mm
20:21 10.8 °C 10.1 °C 1013.4 hPa WSW 0.5 km/h 3.7 km/h 95 % 0 mm
20:26 10.8 °C 10 °C 1013.1 hPa WSW 0.5 km/h 1.9 km/h 95 % 0 mm
20:31 10.8 °C 10 °C 1013.1 hPa Calm   1.9 km/h 95 % 0 mm
20:36 10.8 °C 10 °C 1013.1 hPa WSW 0.5 km/h 3.2 km/h 95 % 0 mm
20:41 10.8 °C 10 °C 1013.4 hPa WSW 0.2 km/h 1.6 km/h 95 % 0 mm
20:46 10.7 °C 9.9 °C 1013.4 hPa WSW 0.2 km/h 1.6 km/h 95 % 0 mm
20:52 10.7 °C 9.9 °C 1013.4 hPa WSW 0.3 km/h 5.6 km/h 95 % 0 mm
20:57 10.7 °C 9.9 °C 1013.4 hPa WSW 1.3 km/h 3.7 km/h 95 % 0 mm
21:02 10.7 °C 9.9 °C 1013.8 hPa NW 3.7 km/h 11.1 km/h 95 % 0 mm
21:07 10.6 °C 9.8 °C 1013.4 hPa North 4.5 km/h 7.4 km/h 95 % 0 mm
21:12 10.4 °C 9.4 °C 1013.8 hPa North 4.2 km/h 5.6 km/h 94 % 0 mm
21:17 10.3 °C 9.2 °C 1013.8 hPa NNW 6 km/h 11.3 km/h 93 % 0 mm
21:22 10.2 °C 8.8 °C 1013.8 hPa North 6.4 km/h 11.1 km/h 91 % 0 mm
21:27 10.1 °C 8.6 °C 1013.8 hPa NNE 8 km/h 11.1 km/h 90 % 0 mm
21:32 10.1 °C 8.3 °C 1013.8 hPa North 7.1 km/h 11.1 km/h 89 % 0 mm
21:37 10 °C 8.3 °C 1013.8 hPa North 5.8 km/h 11.3 km/h 89 % 0 mm
21:42 9.9 °C 8.1 °C 1013.8 hPa NE 6.4 km/h 11.1 km/h 88 % 0 mm
21:47 9.9 °C 7.9 °C 1013.8 hPa NNW 5.8 km/h 11.1 km/h 87 % 0 mm
21:52 9.9 °C 7.9 °C 1013.8 hPa NNE 7.1 km/h 9.3 km/h 87 % 0 mm
21:57 9.9 °C 7.7 °C 1014.1 hPa NNE 3.1 km/h 9.3 km/h 86 % 0 mm
22:02 9.8 °C 7.6 °C 1014.1 hPa North 2.4 km/h 11.1 km/h 86 % 0 mm
22:07 9.9 °C 7.8 °C 1014.1 hPa North 0.5 km/h 5.6 km/h 87 % 0 mm
22:12 9.8 °C 7.8 °C 1014.4 hPa NE 1.9 km/h 11.3 km/h 87 % 0 mm
22:17 9.8 °C 7.8 °C 1014.4 hPa North 0.5 km/h 3.7 km/h 87 % 0 mm
22:22 9.8 °C 7.6 °C 1014.4 hPa NNW 2.1 km/h 5.6 km/h 86 % 0 mm
22:27 9.8 °C 7.6 °C 1014.1 hPa NNE 4.8 km/h 6.4 km/h 86 % 0 mm
22:32 9.7 °C 7.5 °C 1014.1 hPa North 1.9 km/h 5.6 km/h 86 % 0 mm
22:37 9.7 °C 7.3 °C 1014.4 hPa NW 2.4 km/h 5.6 km/h 85 % 0 mm
22:42 9.7 °C 7.3 °C 1014.1 hPa North 3.9 km/h 4.8 km/h 85 % 0 mm
22:47 9.7 °C 7.2 °C 1014.1 hPa NNW 2.3 km/h 9.3 km/h 84 % 0 mm
22:52 9.7 °C 7.3 °C 1014.1 hPa NNW 1.6 km/h 6.4 km/h 85 % 0 mm
22:57 9.7 °C 7.3 °C 1014.1 hPa NNE 0.2 km/h 5.6 km/h 85 % 0 mm
23:02 9.7 °C 7.3 °C 1014.1 hPa NNE 1.9 km/h 6.4 km/h 85 % 0 mm
23:07 9.7 °C 7.2 °C 1014.1 hPa North 3.2 km/h 8 km/h 84 % 0 mm
23:12 9.7 °C 7.2 °C 1014.1 hPa NNW 2.6 km/h 7.4 km/h 84 % 0 mm
23:17 9.7 °C 7.2 °C 1014.1 hPa NNW 1.8 km/h 5.6 km/h 84 % 0 mm
23:22 9.7 °C 7.2 °C 1014.1 hPa North 1.8 km/h 5.6 km/h 84 % 0 mm
23:27 9.7 °C 6.9 °C 1014.1 hPa North 1.9 km/h 5.6 km/h 83 % 0 mm
23:32 9.7 °C 7.1 °C 1014.4 hPa North 1.1 km/h 6.4 km/h 84 % 0 mm
23:37 9.7 °C 6.9 °C 1014.4 hPa NNW 1.6 km/h 6.4 km/h 83 % 0 mm
23:42 9.7 °C 6.9 °C 1014.4 hPa North 1.4 km/h 5.6 km/h 83 % 0 mm
23:47 9.7 °C 6.9 °C 1014.4 hPa NNW 4.7 km/h 11.1 km/h 83 % 0 mm
23:52 9.7 °C 6.9 °C 1014.8 hPa NW 1.3 km/h 3.7 km/h 83 % 0 mm
23:57 9.7 °C 6.9 °C 1014.8 hPa North 1.9 km/h 6.4 km/h 83 % 0 mm
Crab Meadow Weather
Compliments of Weather Underground - 3 mb

Script developed by  Jim McMurry - jmcmurry@mwt.net Adapted for the template by  Wim van der Kuil - Leuven-Template.eu

Recycling: Americans threw away 38 billion plastic water bottles in 2006. A million and a half barrels of oil - enough to fuel 100,000 cars for a year - were used to produce the bottles.